Location: Famechon
(49.7599°N, 2.0615°E)
Time: 06:25:49
(UTC+00:00)

Gblst 52 Del rocket - Visible Passes

Search period start: 24 September 2023 00:00
Search period end: 04 October 2023 00:00
Orbit: 805 x 1364 km, 51.5° (Epoch: 23 September)

Date Brightness Start Highest point End Pass type
(mag) Time Alt. Az. Time Alt. Az. Time Alt. Az.
24 Sep 4.8 18:14:55 10° SW 18:20:51 51° SE 18:27:40 10° ENE visible
24 Sep 4.7 20:06:03 10° W 20:12:35 84° NNW 20:16:15 33° ENE visible
24 Sep 5.2 21:57:57 10° WNW 22:03:11 56° WNW 22:03:11 56° WNW visible
24 Sep 7.1 23:49:46 10° WNW 23:50:06 11° WNW 23:50:06 11° WNW visible
25 Sep 4.6 19:14:06 10° WSW 19:20:26 86° SSE 19:26:16 17° ENE visible
25 Sep 4.7 21:05:55 10° W 21:12:42 78° N 21:13:12 75° NE visible
25 Sep 6.4 22:57:45 10° WNW 23:00:07 24° WNW 23:00:07 24° WNW visible
26 Sep 4.6 18:22:17 10° WSW 18:28:24 72° SSE 18:35:30 10° ENE visible
26 Sep 4.7 20:13:53 10° W 20:20:28 78° N 20:23:12 42° ENE visible
26 Sep 5.6 22:05:44 10° WNW 22:10:08 44° WNW 22:10:08 44° WNW visible
27 Sep 4.7 19:21:53 10° W 19:28:16 81° N 19:33:12 22° ENE visible
27 Sep 4.8 21:13:44 10° WNW 21:20:08 79° NW 21:20:08 79° NW visible
27 Sep 6.8 23:05:32 10° WNW 23:07:03 18° WNW 23:07:03 18° WNW visible
28 Sep 4.6 18:29:56 10° WSW 18:36:07 90° S 18:43:13 11° ENE visible
28 Sep 4.7 20:21:45 10° W 20:28:22 79° N 20:30:08 55° E visible
28 Sep 6.0 22:13:30 10° WNW 22:17:03 33° W 22:17:03 33° W visible
29 Sep 4.7 19:29:44 10° W 19:36:09 77° N 19:40:08 29° E visible
29 Sep 5.0 21:21:32 10° WNW 21:27:04 62° W 21:27:04 62° W visible
29 Sep 7.1 23:13:27 10° WNW 23:14:00 12° WNW 23:14:00 12° WNW visible
30 Sep 4.7 18:37:43 10° W 18:43:58 79° N 18:50:09 15° E visible
30 Sep 4.6 20:29:33 10° WNW 20:36:14 87° NNE 20:37:05 72° E visible
30 Sep 6.4 22:21:19 10° WNW 22:24:00 25° W 22:24:00 25° W visible
01 Oct 4.7 19:37:34 10° W 19:44:03 80° N 19:47:08 38° E visible
01 Oct 5.5 21:29:17 10° WNW 21:34:03 46° W 21:34:03 46° W visible
02 Oct 4.7 18:45:35 10° W 18:51:51 77° N 18:57:11 19° E visible
02 Oct 4.6 20:37:19 10° WNW 20:44:01 78° SSW 20:44:06 77° SSW visible
02 Oct 6.7 22:29:17 10° WNW 22:31:02 18° W 22:31:02 18° W visible
03 Oct 4.7 17:53:35 10° W 17:59:41 78° N 18:06:45 10° E visible
03 Oct 4.6 19:45:22 10° WNW 19:51:53 90° SSW 19:54:11 48° ESE visible
03 Oct 5.9 21:37:08 10° WNW 21:41:07 33° W 21:41:07 33° W visible
